| time (UTC) | temp F | wind direction | speed knots | gust knots | rain 1hr in | rain 24hr in | rain mn in | humidity % | barometer mb |
| 20260902211103 | 81 | 345 | 2.6 | 4.3 | 0.00 | 0.00 | 0.00 | 91 | 1013.9 |
| 20260902205003 | 82 | 331 | 2.6 | 6.1 | 0.00 | 0.00 | 0.00 | 85 | 1014.3 |
| 20260902204700 | 82 | 326 | 3.5 | 7.0 | 0.00 | 0.00 | 0.00 | 85 | 1014.0 |
| 20260902204433 | 82 | 326 | 3.5 | 7.0 | 0.00 | 0.00 | 0.00 | 85 | 1014.0 |
| 20260902203658 | 84 | 352 | 2.6 | 5.2 | 0.00 | 0.00 | 0.00 | 82 | 1013.6 |
| 20260902203334 | 84 | 352 | 2.6 | 5.2 | 0.00 | 0.00 | 0.00 | 82 | 1013.6 |
| 20260902203117 | 85 | 353 | 2.6 | 4.3 | 0.00 | 0.00 | 0.00 | 83 | 1013.9 |
| 20260902202833 | 85 | 353 | 2.6 | 4.3 | 0.00 | 0.00 | 0.00 | 83 | 1013.9 |
| 20260902202333 | 86 | 4 | 2.6 | 7.8 | 0.00 | 0.00 | 0.00 | 83 | 1013.9 |
| 20260902201011 | 88 | 82 | 6.1 | 11.3 | 0.00 | 0.00 | 0.00 | 79 | 1013.6 |
| 20260902200734 | 88 | 82 | 6.1 | 11.3 | 0.00 | 0.00 | 0.00 | 79 | 1013.6 |
| 20260902195633 | 91 | 94 | 5.2 | 13.9 | 0.00 | 0.00 | 0.00 | 75 | 1013.6 |
| 20260902195437 | 93 | 102 | 2.6 | 8.7 | 0.00 | 0.00 | 0.00 | 71 | 1013.6 |
| 20260902195133 | 93 | 102 | 2.6 | 8.7 | 0.00 | 0.00 | 0.00 | 71 | 1013.6 |
| 20260902194826 | 94 | 108 | 1.7 | 5.2 | 0.00 | 0.00 | 0.00 | 71 | 1013.6 |
| 20260902194633 | 94 | 108 | 1.7 | 5.2 | 0.00 | 0.00 | 0.00 | 71 | 1013.6 |
| 20260902194133 | 93 | 94 | 1.7 | 3.5 | 0.00 | 0.00 | 0.00 | 72 | 1013.6 |
| 20260902193816 | 94 | 72 | 0.9 | 2.6 | 0.00 | 0.00 | 0.00 | 69 | 1013.6 |
| 20260902193633 | 94 | 72 | 0.9 | 2.6 | 0.00 | 0.00 | 0.00 | 69 | 1013.6 |
| 20260902193103 | 94 | 69 | 1.7 | 3.5 | 0.00 | 0.00 | 0.00 | 70 | 1013.7 |
| 20260902190003 | 93 | 46 | 1.7 | 3.5 | 0.00 | 0.00 | 0.00 | 72 | 1014.2 |
| 20260902185003 | 93 | 91 | 2.6 | 5.2 | 0.00 | 0.00 | 0.00 | 73 | 1014.4 |
| 20260902184003 | 92 | 3 | 0.9 | 2.6 | 0.00 | 0.00 | 0.00 | 71 | 1014.6 |
| 20260902182933 | 91 | 87 | 1.7 | 3.5 | 0.00 | 0.00 | 0.00 | 75 | 1014.7 |
| 20260902182806 | 91 | 88 | 1.7 | 3.5 | 0.00 | 0.00 | 0.00 | 73 | 1014.8 |
| 20260902182433 | 91 | 88 | 1.7 | 3.5 | 0.00 | 0.00 | 0.00 | 73 | 1014.8 |
| 20260902181403 | 90 | 89 | 1.7 | 5.2 | 0.00 | 0.00 | 0.00 | 76 | 1015.0 |
| 20260902181211 | 89 | 89 | 1.7 | 5.2 | 0.00 | 0.00 | 0.00 | 77 | 1015.0 |
| 20260902180903 | 89 | 89 | 1.7 | 5.2 | 0.00 | 0.00 | 0.00 | 77 | 1015.0 |
| 20260902180333 | 89 | 82 | 1.7 | 3.5 | 0.00 | 0.00 | 0.00 | 77 | 1015.0 |
| 20260902180218 | 89 | 79 | 0.9 | 3.5 | 0.00 | 0.00 | 0.00 | 78 | 1015.1 |
| 20260902175833 | 89 | 79 | 0.9 | 3.5 | 0.00 | 0.00 | 0.00 | 78 | 1015.1 |
| 20260902170003 | 90 | 77 | 1.7 | 6.1 | 0.00 | 0.00 | 0.00 | 75 | 1015.8 |
| 20260902165503 | 90 | 64 | 1.7 | 3.5 | 0.00 | 0.00 | 0.00 | 74 | 1015.8 |
| 20260902165003 | 91 | 55 | 1.7 | 3.5 | 0.00 | 0.00 | 0.00 | 75 | 1015.9 |
| 20260902164503 | 91 | 28 | 1.7 | 3.5 | 0.00 | 0.00 | 0.00 | 76 | 1015.8 |
| 20260902163933 | 91 | 24 | 1.7 | 4.3 | 0.00 | 0.00 | 0.00 | 78 | 1016.0 |
| 20260902163405 | 91 | 45 | 1.7 | 4.3 | 0.00 | 0.00 | 0.00 | 77 | 1016.0 |
| 20260902163300 | 90 | 63 | 1.7 | 4.3 | 0.00 | 0.00 | 0.00 | 80 | 1016.1 |
| 20260902162903 | 90 | 63 | 1.7 | 4.3 | 0.00 | 0.00 | 0.00 | 80 | 1016.1 |
| 20260902161903 | 89 | 79 | 2.6 | 6.1 | 0.00 | 0.00 | 0.00 | 81 | 1016.3 |
| 20260902160903 | 88 | 18 | 1.7 | 4.3 | 0.00 | 0.00 | 0.00 | 81 | 1016.5 |
| 20260902160210 | 88 | 13 | 2.6 | 3.5 | 0.00 | 0.00 | 0.00 | 83 | 1016.5 |
| 20260902155903 | 88 | 13 | 2.6 | 3.5 | 0.00 | 0.00 | 0.00 | 83 | 1016.5 |
| 20260902155404 | 88 | 18 | 1.7 | 3.5 | 0.00 | 0.00 | 0.00 | 82 | 1016.5 |
| 20260902155144 | 87 | 21 | 1.7 | 2.6 | 0.00 | 0.00 | 0.00 | 84 | 1016.6 |
| 20260902154833 | 87 | 21 | 1.7 | 2.6 | 0.00 | 0.00 | 0.00 | 84 | 1016.6 |
| 20260902154333 | 87 | 51 | 1.7 | 2.6 | 0.00 | 0.00 | 0.00 | 81 | 1016.8 |
| 20260902152515 | 88 | 28 | 1.7 | 3.5 | 0.00 | 0.00 | 0.00 | 83 | 1016.9 |
| 20260902152233 | 88 | 28 | 1.7 | 3.5 | 0.00 | 0.00 | 0.00 | 83 | 1016.9 |
| 20260902152015 | 88 | 27 | 1.7 | 3.5 | 0.00 | 0.00 | 0.00 | 83 | 1016.9 |
| 20260902151733 | 88 | 27 | 1.7 | 3.5 | 0.00 | 0.00 | 0.00 | 83 | 1016.9 |
| 20260902145633 | 86 | 24 | 1.7 | 3.5 | 0.00 | 0.00 | 0.00 | 87 | 1016.8 |
| 20260902144633 | 86 | 57 | 1.7 | 3.5 | 0.00 | 0.00 | 0.00 | 87 | 1016.8 |
| 20260902143634 | 84 | 51 | 1.7 | 5.2 | 0.00 | 0.00 | 0.00 | 90 | 1016.6 |
| 20260902141817 | 84 | 49 | 1.7 | 2.6 | 0.00 | 0.00 | 0.00 | 92 | 1016.6 |
| 20260902141604 | 84 | 49 | 1.7 | 2.6 | 0.00 | 0.00 | 0.00 | 92 | 1016.6 |
| 20260902141103 | 84 | 32 | 1.7 | 2.6 | 0.00 | 0.00 | 0.00 | 92 | 1016.7 |
| 20260902140003 | 83 | 70 | 1.7 | 5.2 | 0.00 | 0.00 | 0.00 | 93 | 1016.6 |
| 20260902135759 | 82 | 76 | 1.7 | 5.2 | 0.00 | 0.00 | 0.00 | 93 | 1016.7 |
| 20260902135434 | 82 | 76 | 1.7 | 5.2 | 0.00 | 0.00 | 0.00 | 93 | 1016.7 |
| 20260902135216 | 82 | 62 | 1.7 | 3.5 | 0.00 | 0.00 | 0.00 | 94 | 1016.6 |
| 20260902134933 | 82 | 62 | 1.7 | 3.5 | 0.00 | 0.00 | 0.00 | 94 | 1016.6 |
| 20260902133833 | 82 | 41 | 1.7 | 3.5 | 0.00 | 0.00 | 0.00 | 95 | 1016.6 |
| 20260902133333 | 82 | 38 | 1.7 | 3.5 | 0.00 | 0.00 | 0.00 | 95 | 1016.7 |
| 20260902132834 | 82 | 27 | 1.7 | 2.6 | 0.00 | 0.00 | 0.00 | 95 | 1016.8 |
| 20260902131948 | 81 | 32 | 1.7 | 3.5 | 0.00 | 0.00 | 0.00 | 96 | 1016.7 |
| 20260902131734 | 81 | 32 | 1.7 | 3.5 | 0.00 | 0.00 | 0.00 | 96 | 1016.7 |
| 20260902131235 | 81 | 24 | 1.7 | 2.6 | 0.00 | 0.00 | 0.00 | 97 | 1016.6 |
| 20260902125633 | 80 | 23 | 1.7 | 3.5 | 0.00 | 0.00 | 0.00 | 98 | 1016.6 |
| 20260902125103 | 80 | 29 | 1.7 | 3.5 | 0.00 | 0.00 | 0.00 | 98 | 1016.6 |
| 20260902124604 | 80 | 21 | 1.7 | 3.5 | 0.00 | 0.00 | 0.00 | 98 | 1016.6 |
| 20260902124331 | 79 | 21 | 1.7 | 2.6 | 0.00 | 0.00 | 0.00 | 99 | 1016.6 |
| 20260902124033 | 79 | 21 | 1.7 | 2.6 | 0.00 | 0.00 | 0.00 | 99 | 1016.6 |
| 20260902123533 | 79 | 24 | 1.7 | 2.6 | 0.00 | 0.00 | 0.00 | 99 | 1016.7 |
| 20260902123004 | 79 | 21 | 1.7 | 2.6 | 0.00 | 0.00 | 0.00 | 100 | 1016.8 |
| 20260902122710 | 79 | 18 | 1.7 | 2.6 | 0.00 | 0.00 | 0.00 | 100 | 1016.7 |
| 20260902122433 | 79 | 18 | 1.7 | 2.6 | 0.00 | 0.00 | 0.00 | 100 | 1016.7 |
| 20260902121933 | 78 | 20 | 0.9 | 2.6 | 0.00 | 0.00 | 0.00 | 100 | 1016.7 |
| 20260902121144 | 78 | 14 | 1.7 | 2.6 | 0.00 | 0.00 | 0.00 | 100 | 1016.6 |
| 20260902120905 | 78 | 14 | 1.7 | 2.6 | 0.00 | 0.00 | 0.00 | 100 | 1016.6 |
| 20260902114537 | 78 | 22 | 0.9 | 1.7 | 0.00 | 0.00 | 0.00 | 100 | 1016.4 |
| 20260902114234 | 78 | 22 | 0.9 | 1.7 | 0.00 | 0.00 | 0.00 | 100 | 1016.4 |
| 20260902113953 | 78 | 20 | 0.9 | 1.7 | 0.00 | 0.00 | 0.00 | 100 | 1016.3 |
| 20260902113733 | 78 | 20 | 0.9 | 1.7 | 0.00 | 0.00 | 0.00 | 100 | 1016.3 |
| 20260902110604 | 77 | 21 | 1.7 | 2.6 | 0.00 | 0.00 | 0.00 | 100 | 1015.8 |
| 20260902110339 | 77 | 19 | 1.7 | 2.6 | 0.00 | 0.00 | 0.00 | 100 | 1015.7 |
| 20260902105033 | 77 | 20 | 0.9 | 2.6 | 0.00 | 0.00 | 0.00 | 100 | 1015.7 |
| 20260902104534 | 77 | 9 | 1.7 | 2.6 | 0.00 | 0.00 | 0.00 | 100 | 1015.7 |
| 20260902104004 | 77 | 7 | 0.9 | 2.6 | 0.00 | 0.00 | 0.00 | 100 | 1015.7 |
| 20260902103504 | 77 | 19 | 1.7 | 2.6 | 0.00 | 0.00 | 0.00 | 100 | 1015.7 |
| 20260902103333 | 77 | 21 | 1.7 | 2.6 | 0.00 | 0.00 | 0.00 | 100 | 1015.6 |
| 20260902102934 | 77 | 21 | 1.7 | 2.6 | 0.00 | 0.00 | 0.00 | 100 | 1015.6 |
| 20260902102433 | 77 | 16 | 1.7 | 2.6 | 0.00 | 0.00 | 0.00 | 100 | 1015.6 |
| 20260902102246 | 77 | 10 | 1.7 | 2.6 | 0.00 | 0.00 | 0.00 | 100 | 1015.6 |
| 20260902101935 | 77 | 10 | 1.7 | 2.6 | 0.00 | 0.00 | 0.00 | 100 | 1015.6 |
| 20260902101657 | 78 | 12 | 0.9 | 2.6 | 0.00 | 0.00 | 0.00 | 100 | 1015.5 |
| 20260902101404 | 78 | 12 | 0.9 | 2.6 | 0.00 | 0.00 | 0.00 | 100 | 1015.5 |
| 20260902100528 | 77 | 12 | 0.9 | 2.6 | 0.00 | 0.00 | 0.00 | 99 | 1015.5 |
| 20260902100334 | 77 | 12 | 0.9 | 2.6 | 0.00 | 0.00 | 0.00 | 99 | 1015.5 |
| 20260902094733 | 77 | 23 | 0.9 | 1.7 | 0.00 | 0.00 | 0.00 | 99 | 1015.5 |
| 20260902094234 | 77 | 8 | 0.9 | 1.7 | 0.00 | 0.00 | 0.00 | 99 | 1015.5 |
| 20260902093614 | 92 | 101 | 4.3 | 7.8 | 0.00 | 0.33 | 0.00 | 70 | 1017.1 |
| 20260902093612 | 92 | 104 | 4.3 | 7.8 | 0.00 | 0.33 | 0.00 | 74 | 1017.2 |
| 20260902093133 | 77 | 13 | 0.9 | 1.7 | 0.00 | 0.00 | 0.00 | 99 | 1015.4 |
| 20260902092910 | 77 | 14 | 0.9 | 2.6 | 0.00 | 0.00 | 0.00 | 99 | 1015.5 |
| 20260902092633 | 77 | 14 | 0.9 | 2.6 | 0.00 | 0.00 | 0.00 | 99 | 1015.5 |
| 20260902092103 | 78 | 11 | 0.9 | 2.6 | 0.00 | 0.00 | 0.00 | 99 | 1015.5 |
| 20260902091033 | 77 | 4 | 0.9 | 1.7 | 0.00 | 0.00 | 0.00 | 99 | 1015.4 |
| 20260902090534 | 77 | 5 | 0.9 | 1.7 | 0.00 | 0.00 | 0.00 | 99 | 1015.3 |
| 20260902090139 | 77 | 15 | 0.9 | 1.7 | 0.00 | 0.00 | 0.00 | 99 | 1015.3 |
| 20260902090004 | 77 | 15 | 0.9 | 1.7 | 0.00 | 0.00 | 0.00 | 99 | 1015.3 |
| 20260902085714 | 77 | 25 | 0.9 | 2.6 | 0.00 | 0.00 | 0.00 | 99 | 1015.2 |
| 20260902085433 | 77 | 25 | 0.9 | 2.6 | 0.00 | 0.00 | 0.00 | 99 | 1015.2 |
| 20260902083834 | 77 | 359 | 0.9 | 1.7 | 0.00 | 0.00 | 0.00 | 98 | 1015.2 |
| 20260902083806 | 77 | 1 | 0.9 | 1.7 | 0.00 | 0.00 | 0.00 | 98 | 1015.3 |
| 20260902083333 | 77 | 1 | 0.9 | 1.7 | 0.00 | 0.00 | 0.00 | 98 | 1015.3 |
| 20260902082833 | 77 | 13 | 0.9 | 1.7 | 0.00 | 0.00 | 0.00 | 98 | 1015.2 |
| 20260902080803 | 78 | 9 | 0.9 | 1.7 | 0.00 | 0.00 | 0.00 | 98 | 1015.2 |
| 20260902075548 | 78 | 20 | 0.9 | 1.7 | 0.00 | 0.00 | 0.00 | 97 | 1015.2 |
| 20260902075233 | 78 | 20 | 0.9 | 1.7 | 0.00 | 0.00 | 0.00 | 97 | 1015.2 |
| 20260902074954 | 78 | 31 | 0.0 | 1.7 | 0.00 | 0.00 | 0.00 | 97 | 1015.3 |
| 20260902074733 | 78 | 31 | 0.0 | 1.7 | 0.00 | 0.00 | 0.00 | 97 | 1015.3 |
| 20260902072133 | 78 | 9 | 0.9 | 1.7 | 0.00 | 0.00 | 0.00 | 98 | 1015.3 |
| 20260902071833 | 78 | 27 | 0.9 | 1.7 | 0.00 | 0.00 | 0.00 | 98 | 1015.4 |
| 20260902071633 | 78 | 27 | 0.9 | 1.7 | 0.00 | 0.00 | 0.00 | 98 | 1015.4 |
| 20260902071026 | 78 | 54 | 0.9 | 1.7 | 0.00 | 0.00 | 0.00 | 98 | 1015.4 |
| 20260902070634 | 78 | 54 | 0.9 | 1.7 | 0.00 | 0.00 | 0.00 | 98 | 1015.4 |
| 20260902065913 | 78 | 57 | 0.9 | 1.7 | 0.00 | 0.00 | 0.00 | 97 | 1015.4 |
| 20260902065603 | 78 | 57 | 0.9 | 1.7 | 0.00 | 0.00 | 0.00 | 97 | 1015.4 |
| 20260902065033 | 78 | 57 | 0.9 | 1.7 | 0.00 | 0.00 | 0.00 | 97 | 1015.5 |
| 20260902064533 | 78 | 57 | 0.9 | 1.7 | 0.00 | 0.00 | 0.00 | 97 | 1015.5 |
| 20260902064033 | 78 | 57 | 0.0 | 0.9 | 0.00 | 0.00 | 0.00 | 97 | 1015.6 |
| 20260902063533 | 78 | 57 | 0.0 | 0.9 | 0.00 | 0.00 | 0.00 | 97 | 1015.6 |
| 20260902063003 | 78 | 57 | 0.0 | 0.9 | 0.00 | 0.00 | 0.00 | 97 | 1015.7 |
| 20260902062706 | 78 | 57 | 0.0 | 0.9 | 0.00 | 0.00 | 0.00 | 97 | 1015.7 |
| 20260902062433 | 78 | 57 | 0.0 | 0.9 | 0.00 | 0.00 | 0.00 | 97 | 1015.7 |
| 20260902061933 | 78 | 57 | 0.0 | 0.9 | 0.00 | 0.00 | 0.00 | 97 | 1015.6 |
| 20260902061223 | 78 | 57 | 0.0 | 0.9 | 0.00 | 0.00 | 0.00 | 97 | 1015.8 |
| 20260902060933 | 78 | 57 | 0.0 | 0.9 | 0.00 | 0.00 | 0.00 | 97 | 1015.8 |
| 20260902055333 | 78 | 0 | 0.0 | 0.0 | 0.00 | 0.00 | 0.00 | 97 | 1015.9 |
| 20260902054805 | 78 | 0 | 0.0 | 0.0 | 0.00 | 0.00 | 0.00 | 97 | 1015.9 |
| 20260902054233 | 78 | 0 | 0.0 | 0.0 | 0.00 | 0.00 | 0.00 | 96 | 1015.9 |
| 20260902053733 | 78 | 0 | 0.0 | 0.0 | 0.00 | 0.00 | 0.00 | 96 | 1015.8 |
| 20260902052419 | 78 | 0 | 0.0 | 0.0 | 0.00 | 0.00 | 0.00 | 96 | 1016.0 |
| 20260902052133 | 78 | 0 | 0.0 | 0.0 | 0.00 | 0.00 | 0.00 | 96 | 1016.0 |
| 20260902052006 | 78 | 0 | 0.0 | 0.0 | 0.00 | 0.00 | 0.00 | 96 | 1016.0 |
| 20260902051633 | 78 | 0 | 0.0 | 0.0 | 0.00 | 0.00 | 0.00 | 96 | 1016.0 |
| 20260902051133 | 78 | 0 | 0.0 | 0.0 | 0.00 | 0.00 | 0.00 | 96 | 1016.0 |
| 20260902050451 | 78 | 0 | 0.0 | 0.0 | 0.00 | 0.00 | 0.00 | 96 | 1016.0 |
| 20260902050133 | 78 | 0 | 0.0 | 0.0 | 0.00 | 0.00 | 0.00 | 96 | 1016.0 |
| 20260902045603 | 78 | 0 | 0.0 | 0.0 | 0.00 | 0.00 | 0.00 | 96 | 1016.0 |
| 20260902045103 | 78 | 0 | 0.0 | 0.0 | 0.00 | 0.00 | 0.00 | 96 | 1016.0 |
| 20260902044603 | 78 | 0 | 0.0 | 0.0 | 0.00 | 0.00 | 0.00 | 96 | 1016.0 |
| 20260902044103 | 79 | 57 | 0.0 | 0.9 | 0.00 | 0.00 | 0.00 | 96 | 1016.1 |
| 20260902043533 | 79 | 57 | 0.0 | 0.9 | 0.00 | 0.00 | 0.00 | 95 | 1016.1 |
| 20260902043033 | 79 | 57 | 0.0 | 0.9 | 0.00 | 0.00 | 0.00 | 95 | 1016.2 |
| 20260902042818 | 79 | 0 | 0.0 | 0.0 | 0.00 | 0.00 | 0.00 | 95 | 1016.1 |
| 20260902042503 | 79 | 0 | 0.0 | 0.0 | 0.00 | 0.00 | 0.00 | 95 | 1016.1 |
| 20260902042356 | 79 | 0 | 0.0 | 0.0 | 0.00 | 0.00 | 0.00 | 94 | 1016.3 |
| 20260902041933 | 79 | 0 | 0.0 | 0.0 | 0.00 | 0.00 | 0.00 | 94 | 1016.3 |
| 20260902041744 | 80 | 0 | 0.0 | 0.9 | 0.00 | 0.00 | 0.00 | 94 | 1016.5 |
| 20260902041433 | 80 | 0 | 0.0 | 0.9 | 0.00 | 0.00 | 0.00 | 94 | 1016.5 |
| 20260902040333 | 80 | 57 | 0.0 | 0.9 | 0.00 | 0.00 | 0.00 | 93 | 1016.3 |
| 20260902033733 | 80 | 55 | 0.9 | 1.7 | 0.00 | 0.00 | 0.00 | 93 | 1016.6 |
| 20260902033233 | 80 | 55 | 0.0 | 1.7 | 0.00 | 0.00 | 0.00 | 93 | 1016.7 |
| 20260902032733 | 80 | 55 | 0.0 | 0.9 | 0.00 | 0.00 | 0.00 | 92 | 1016.6 |
| 20260902031903 | 81 | 55 | 0.0 | 0.9 | 0.00 | 0.00 | 0.00 | 91 | 1016.7 |
| 20260902031633 | 81 | 55 | 0.0 | 0.9 | 0.00 | 0.00 | 0.00 | 91 | 1016.7 |
| 20260902031133 | 81 | 56 | 0.0 | 1.7 | 0.00 | 0.00 | 0.00 | 91 | 1016.7 |
| 20260902030603 | 81 | 70 | 0.9 | 1.7 | 0.00 | 0.00 | 0.00 | 91 | 1016.7 |
| 20260902030326 | 81 | 79 | 1.7 | 2.6 | 0.00 | 0.00 | 0.00 | 91 | 1016.7 |
| 20260902030103 | 81 | 79 | 1.7 | 2.6 | 0.00 | 0.00 | 0.00 | 91 | 1016.7 |
| 20260902025533 | 81 | 81 | 1.7 | 5.2 | 0.00 | 0.00 | 0.00 | 91 | 1016.7 |
| 20260902025215 | 81 | 85 | 1.7 | 5.2 | 0.00 | 0.00 | 0.00 | 90 | 1016.8 |
| 20260902025003 | 81 | 85 | 1.7 | 5.2 | 0.00 | 0.00 | 0.00 | 90 | 1016.8 |
| 20260902024810 | 81 | 90 | 2.6 | 6.1 | 0.00 | 0.00 | 0.00 | 90 | 1016.9 |
| 20260902024433 | 81 | 90 | 2.6 | 6.1 | 0.00 | 0.00 | 0.00 | 90 | 1016.9 |
| 20260902023933 | 81 | 89 | 2.6 | 6.1 | 0.00 | 0.00 | 0.00 | 90 | 1016.9 |
| 20260902023721 | 82 | 89 | 2.6 | 5.2 | 0.00 | 0.00 | 0.00 | 90 | 1016.8 |
| 20260902023403 | 82 | 89 | 2.6 | 5.2 | 0.00 | 0.00 | 0.00 | 90 | 1016.8 |
| 20260902022333 | 82 | 82 | 1.7 | 7.0 | 0.00 | 0.00 | 0.00 | 89 | 1016.7 |
| 20260902021233 | 82 | 84 | 3.5 | 7.8 | 0.00 | 0.00 | 0.00 | 89 | 1016.5 |
| 20260902020133 | 82 | 86 | 3.5 | 7.8 | 0.00 | 0.00 | 0.00 | 89 | 1016.5 |
| 20260902015603 | 82 | 91 | 4.3 | 7.8 | 0.00 | 0.00 | 0.00 | 89 | 1016.5 |
| 20260902015033 | 82 | 96 | 5.2 | 8.7 | 0.00 | 0.00 | 0.00 | 89 | 1016.3 |
| 20260902014033 | 82 | 96 | 6.1 | 9.6 | 0.00 | 0.00 | 0.00 | 89 | 1016.4 |
| 20260902013533 | 82 | 93 | 4.3 | 9.6 | 0.00 | 0.00 | 0.00 | 90 | 1016.5 |
| 20260902013003 | 81 | 91 | 4.3 | 7.8 | 0.00 | 0.00 | 0.00 | 91 | 1016.4 |
| 20260902012503 | 81 | 94 | 4.3 | 7.8 | 0.00 | 0.00 | 0.00 | 91 | 1016.5 |
| 20260902011933 | 81 | 90 | 3.5 | 7.8 | 0.00 | 0.00 | 0.00 | 92 | 1016.4 |
| 20260902011433 | 81 | 90 | 2.6 | 7.0 | 0.00 | 0.00 | 0.00 | 92 | 1016.4 |
| 20260902005833 | 81 | 65 | 0.9 | 1.7 | 0.00 | 0.00 | 0.00 | 93 | 1016.4 |
| 20260902005333 | 81 | 65 | 0.9 | 1.7 | 0.00 | 0.00 | 0.00 | 92 | 1016.4 |
| 20260902004833 | 81 | 71 | 0.9 | 1.7 | 0.00 | 0.00 | 0.00 | 92 | 1016.4 |
| 20260902003607 | 81 | 58 | 0.9 | 1.7 | 0.00 | 0.00 | 0.00 | 92 | 1016.2 |
| 20260902003233 | 81 | 58 | 0.9 | 1.7 | 0.00 | 0.00 | 0.00 | 92 | 1016.2 |
| 20260902002733 | 81 | 48 | 0.9 | 1.7 | 0.00 | 0.00 | 0.00 | 91 | 1016.3 |
| 20260902002233 | 81 | 48 | 0.9 | 1.7 | 0.00 | 0.00 | 0.00 | 90 | 1016.2 |
| 20260902001623 | 81 | 63 | 0.9 | 1.7 | 0.00 | 0.00 | 0.00 | 90 | 1016.1 |
| 20260902001233 | 81 | 63 | 0.9 | 1.7 | 0.00 | 0.00 | 0.00 | 90 | 1016.1 |
| 20260902000234 | 81 | 77 | 0.9 | 1.7 | 0.00 | 0.00 | 0.00 | 90 | 1016.1 |
| 20260901232633 | 82 | 53 | 1.7 | 2.6 | 0.00 | 0.00 | 0.00 | 87 | 1015.8 |
| 20260901232133 | 82 | 50 | 1.7 | 2.6 | 0.00 | 0.00 | 0.00 | 87 | 1015.9 |
| 20260901231103 | 83 | 59 | 0.9 | 1.7 | 0.00 | 0.00 | 0.00 | 86 | 1015.7 |
| 20260901230603 | 83 | 54 | 0.9 | 1.7 | 0.00 | 0.00 | 0.00 | 85 | 1015.6 |
| 20260901230033 | 83 | 42 | 0.9 | 1.7 | 0.00 | 0.00 | 0.00 | 83 | 1015.7 |
| 20260901225503 | 83 | 54 | 1.7 | 3.5 | 0.00 | 0.00 | 0.00 | 83 | 1015.7 |
| 20260901225003 | 83 | 54 | 1.7 | 3.5 | 0.00 | 0.00 | 0.00 | 83 | 1015.6 |
| 20260901224808 | 84 | 46 | 1.7 | 3.5 | 0.00 | 0.00 | 0.00 | 84 | 1015.7 |
| 20260901224503 | 84 | 46 | 1.7 | 3.5 | 0.00 | 0.00 | 0.00 | 84 | 1015.7 |
| 20260901224003 | 84 | 44 | 1.7 | 3.5 | 0.00 | 0.00 | 0.00 | 86 | 1015.7 |
| 20260901223433 | 84 | 43 | 0.9 | 2.6 | 0.00 | 0.00 | 0.00 | 84 | 1015.7 |
| 20260901222933 | 85 | 35 | 0.9 | 2.6 | 0.00 | 0.00 | 0.00 | 84 | 1015.6 |
| 20260901222403 | 85 | 35 | 0.9 | 2.6 | 0.00 | 0.00 | 0.00 | 84 | 1015.7 |
| 20260901222138 | 85 | 39 | 0.9 | 2.6 | 0.00 | 0.00 | 0.00 | 83 | 1015.5 |
| 20260901221833 | 85 | 39 | 0.9 | 2.6 | 0.00 | 0.00 | 0.00 | 83 | 1015.5 |
| 20260901221333 | 85 | 44 | 1.7 | 2.6 | 0.00 | 0.00 | 0.00 | 83 | 1015.4 |
| 20260901220552 | 85 | 49 | 1.7 | 5.2 | 0.00 | 0.00 | 0.00 | 82 | 1015.4 |
| 20260901220233 | 85 | 49 | 1.7 | 5.2 | 0.00 | 0.00 | 0.00 | 82 | 1015.4 |
| 20260901214133 | 86 | 28 | 1.7 | 3.5 | 0.00 | 0.00 | 0.00 | 79 | 1015.4 |
| 20260901213820 | 86 | 40 | 1.7 | 4.3 | 0.00 | 0.00 | 0.00 | 79 | 1015.4 |
| 20260901213603 | 86 | 40 | 1.7 | 4.3 | 0.00 | 0.00 | 0.00 | 79 | 1015.4 |
| 20260901213033 | 86 | 68 | 2.6 | 7.8 | 0.00 | 0.01 | 0.00 | 79 | 1015.4 |
| 20260901212503 | 87 | 75 | 2.6 | 7.8 | 0.00 | 0.01 | 0.00 | 78 | 1015.3 |
| 20260901212003 | 87 | 67 | 2.6 | 7.0 | 0.00 | 0.01 | 0.00 | 80 | 1015.2 |
| 20260901211749 | 86 | 67 | 2.6 | 6.1 | 0.00 | 0.02 | 0.00 | 79 | 1015.2 |
| 20260901211503 | 86 | 67 | 2.6 | 6.1 | 0.00 | 0.02 | 0.00 | 79 | 1015.2 |
| 20260901211209 | 86 | 70 | 2.6 | 6.1 | 0.00 | 0.03 | 0.00 | 80 | 1015.2 |